Flag for Canada Weather past 2 weeks in Stonewall, Manitoba, Canada

Now
54 °F

Clear.


Feels Like: 52 °F
Forecast: 53 / 72 °F
Wind: 7 mph from South

Location: Winnipeg Int. Airportman.

Current Time: Sep 3, 2014 at 2:42:39 AM

Latest Report: Sep 3, 2014 at 2:00 AM


Visibility: 15 mi

Pressure: 29.74 "Hg

Humidity: 94%

Dew point: 52 °F

Location of StonewallLocation

Historic Weather in Stonewall — Graph

°F

Stonewall temperature yesterday

Maximum temperature yesterday: 73 °F (at 2:00 PM)
Minimum temperature yesterday: 50 °F (at 5:00 AM)
Average temperature yesterday: 60 °F

Past Weeks' High & Low Weather Summary

 TemperatureHumidityPressure
High84 °F (Aug 20, 4:00 PM)100% (Aug 19, 1:00 AM)30.20 "Hg (Aug 19, 1:00 AM)
Low39 °F (Aug 30, 7:00 AM)39% (Aug 27, 3:00 PM)29.53 "Hg (Aug 31, 3:00 PM)
Average63 °F82%29.85 "Hg
* Reported Aug 19 1:00 AM — Sep 3 1:00 AM, Stonewall, Weather by CustomWeather, © 2014

Note: Actual official high and low records may vary slightly from our data, if they occured in-between our weather recording intervals... More about our weather records

Advertising

Stonewall weather history for previous 24 hours

 ConditionsComfort  
Time TempWeatherWind HumidityBarometerVisibility
1:00 AM
Sep 3
54 °FClear.No wind94%29.74 "Hg15 mi
12:00 AM52 °FPassing clouds.3 mph100%29.74 "Hg15 mi
11:00 PM
Sep 2
52 °FPassing clouds.3 mph100%29.74 "Hg15 mi
10:00 PM54 °FPassing clouds.3 mph100%29.73 "Hg15 mi
9:00 PM55 °FPassing clouds.3 mph94%29.72 "Hg15 mi
8:00 PM63 °FPassing clouds.2 mph77%29.69 "Hg15 mi
7:00 PM66 °FPassing clouds.2 mph64%29.69 "Hg15 mi
6:00 PM68 °FPassing clouds.6 mph60%29.69 "Hg15 mi
5:00 PM66 °FScattered clouds.No wind64%29.70 "Hg15 mi
4:00 PM66 °FScattered clouds.2 mph73%29.70 "Hg15 mi
3:46 PM63 °FSprinkles. Partly sunny.5 mph77%29.68 "Hg15 mi
3:00 PM70 °FSprinkles. Partly sunny.10 mph50%29.68 "Hg15 mi
2:00 PM73 °FBroken clouds.8 mph41%29.68 "Hg15 mi
1:00 PM72 °FPartly sunny.6 mph47%29.70 "Hg15 mi
12:00 PM70 °FBroken clouds.7 mph50%29.72 "Hg15 mi
11:00 AM66 °FPartly sunny.8 mph52%29.72 "Hg15 mi
10:00 AM63 °FScattered clouds.6 mph64%29.74 "Hg15 mi
9:00 AM57 °FBroken clouds.9 mph72%29.75 "Hg15 mi
8:00 AM54 °FPartly sunny.7 mph82%29.74 "Hg15 mi
7:00 AM50 °FPassing clouds.7 mph88%29.72 "Hg15 mi
6:00 AM50 °FClear.9 mph88%29.72 "Hg15 mi
5:00 AM50 °FClear.8 mph88%29.72 "Hg15 mi
4:00 AM52 °FClear.9 mph82%29.72 "Hg15 mi
3:00 AM52 °FClear.9 mph82%29.71 "Hg15 mi
2:00 AM52 °FClear.8 mph88%29.72 "Hg15 mi
Weather by CustomWeather, © 2014

See weather overviewHow to use our weather pages